GEFSGL_prec_meanprecacc_078.txt.gz
Total_Precipitation_Accumulation
0.58 0.66 0.55 0.38 0.31 0.32 0.35 0.34 0.37 0.45 0.55 0.61 0.58 0.52 0.50 0.55 0.67 0.82 0.89 0.98 1.06 1.10 1.17 1.19 1.18 1.20 1.25 1.22 1.29 1.42 1.57 1.70 1.57 1.51 1.43 1.38 1.30 1.19 1.05 0.82 0.68 0.57 0.50
1.03 1.11 0.96 0.58 0.36 0.29 0.24 0.23 0.30 0.42 0.52 0.57 0.54 0.49 0.48 0.54 0.67 0.81 0.97 1.17 1.29 1.25 1.18 1.09 1.02 1.07 1.14 1.16 1.26 1.29 1.35 1.54 1.55 1.55 1.56 1.58 1.47 1.28 1.18 1.02 0.80 0.65 0.62
0.93 1.04 0.84 0.46 0.26 0.20 0.18 0.23 0.36 0.48 0.52 0.52 0.54 0.59 0.69 0.77 0.88 1.00 1.06 1.20 1.25 1.16 1.11 1.04 0.97 0.96 0.98 1.06 1.16 1.24 1.24 1.32 1.44 1.49 1.55 1.62 1.60 1.40 1.21 1.08 0.95 0.91 0.83
0.53 0.68 0.55 0.32 0.21 0.17 0.18 0.23 0.29 0.32 0.38 0.47 0.60 0.77 0.88 0.94 0.97 1.04 1.03 1.00 1.00 0.92 0.85 0.80 0.85 0.95 0.99 0.96 0.95 0.99 1.06 1.16 1.24 1.31 1.43 1.56 1.61 1.54 1.30 1.19 1.15 1.05 0.97
0.43 0.54 0.43 0.27 0.19 0.13 0.11 0.13 0.18 0.26 0.32 0.45 0.61 0.71 0.71 0.73 0.80 0.88 0.89 0.86 0.82 0.76 0.67 0.53 0.53 0.71 0.85 0.87 0.82 0.83 0.85 0.93 1.00 1.10 1.22 1.38 1.49 1.55 1.37 1.18 1.13 1.14 1.09
0.37 0.49 0.43 0.33 0.21 0.13 0.11 0.13 0.20 0.26 0.32 0.40 0.49 0.50 0.46 0.36 0.35 0.39 0.48 0.56 0.61 0.61 0.53 0.47 0.46 0.50 0.54 0.56 0.61 0.66 0.71 0.76 0.86 1.00 1.13 1.22 1.25 1.33 1.40 1.37 1.29 1.24 1.21
0.37 0.46 0.47 0.42 0.32 0.24 0.17 0.17 0.23 0.29 0.33 0.39 0.39 0.40 0.41 0.40 0.27 0.20 0.21 0.32 0.41 0.44 0.44 0.45 0.37 0.34 0.36 0.34 0.35 0.36 0.40 0.47 0.59 0.78 0.98 1.07 1.16 1.16 1.34 1.41 1.39 1.45 1.46
0.31 0.44 0.50 0.49 0.45 0.43 0.33 0.31 0.34 0.38 0.41 0.45 0.42 0.41 0.45 0.42 0.29 0.21 0.17 0.20 0.31 0.35 0.37 0.37 0.36 0.39 0.39 0.36 0.34 0.33 0.30 0.30 0.34 0.44 0.65 0.89 1.06 1.21 1.25 1.35 1.40 1.45 1.45
0.26 0.41 0.50 0.52 0.51 0.49 0.48 0.47 0.50 0.54 0.50 0.47 0.46 0.48 0.50 0.50 0.36 0.23 0.18 0.25 0.37 0.38 0.38 0.37 0.36 0.37 0.35 0.30 0.34 0.35 0.34 0.34 0.30 0.33 0.44 0.66 0.86 0.95 1.12 1.28 1.38 1.29 1.24
0.28 0.39 0.54 0.64 0.69 0.69 0.66 0.61 0.61 0.70 0.63 0.57 0.52 0.54 0.58 0.65 0.54 0.31 0.23 0.34 0.50 0.54 0.56 0.52 0.41 0.37 0.33 0.25 0.29 0.36 0.34 0.33 0.33 0.31 0.30 0.41 0.58 0.72 0.79 0.88 1.02 1.08 0.99
0.31 0.37 0.51 0.71 0.81 0.81 0.83 0.79 0.76 0.77 0.78 0.78 0.70 0.70 0.72 0.77 0.68 0.39 0.29 0.41 0.58 0.69 0.71 0.66 0.56 0.42 0.31 0.27 0.27 0.33 0.34 0.36 0.42 0.44 0.42 0.43 0.55 0.70 0.71 0.71 0.77 0.84 0.81
0.39 0.47 0.58 0.71 0.65 0.66 0.89 0.94 0.96 1.00 0.99 0.94 0.89 0.82 0.81 0.83 0.75 0.50 0.31 0.41 0.59 0.79 0.86 0.82 0.72 0.53 0.38 0.33 0.32 0.31 0.29 0.30 0.39 0.46 0.48 0.45 0.48 0.59 0.68 0.68 0.69 0.71 0.71
0.50 0.56 0.63 0.70 0.80 0.93 1.01 1.03 1.06 1.10 1.11 1.04 0.99 0.95 0.91 0.93 0.89 0.57 0.40 0.47 0.58 0.76 0.96 0.98 0.80 0.63 0.53 0.42 0.39 0.40 0.36 0.33 0.41 0.44 0.44 0.43 0.42 0.49 0.63 0.73 0.76 0.75 0.72
0.58 0.59 0.63 0.74 0.83 0.95 1.12 1.18 1.19 1.15 1.14 1.12 1.04 1.00 1.00 1.05 1.08 0.83 0.60 0.60 0.69 0.77 0.91 0.97 0.87 0.72 0.64 0.55 0.48 0.47 0.45 0.44 0.48 0.48 0.47 0.49 0.48 0.52 0.58 0.65 0.72 0.73 0.70
0.67 0.66 0.66 0.75 0.89 0.97 1.09 1.18 1.19 1.23 1.07 1.01 0.95 0.92 0.94 1.03 1.05 0.86 0.77 0.80 0.92 0.97 0.96 1.01 1.01 0.87 0.76 0.67 0.61 0.62 0.62 0.58 0.53 0.55 0.56 0.57 0.54 0.53 0.56 0.57 0.60 0.61 0.59
0.82 0.74 0.70 0.76 0.89 0.99 1.09 1.10 0.94 0.88 0.71 0.63 0.64 0.61 0.65 0.72 0.82 0.71 0.62 0.72 0.89 0.96 0.93 0.97 1.03 0.98 0.88 0.78 0.71 0.72 0.71 0.67 0.62 0.61 0.60 0.59 0.56 0.51 0.52 0.53 0.54 0.54 0.53
0.95 0.85 0.78 0.77 0.86 0.94 1.04 1.17 1.21 0.99 0.75 0.59 0.52 0.45 0.47 0.54 0.63 0.63 0.60 0.66 0.77 0.82 0.84 0.88 0.92 0.95 0.89 0.84 0.78 0.76 0.72 0.71 0.70 0.66 0.63 0.62 0.58 0.52 0.49 0.50 0.48 0.49 0.51
1.01 0.90 0.82 0.83 0.87 0.90 0.96 1.09 1.25 1.25 1.03 0.72 0.57 0.47 0.41 0.44 0.48 0.54 0.57 0.63 0.73 0.76 0.76 0.79 0.82 0.83 0.81 0.81 0.80 0.80 0.77 0.75 0.70 0.68 0.64 0.61 0.56 0.48 0.47 0.46 0.42 0.42 0.44
0.97 0.90 0.82 0.85 0.87 0.86 0.92 1.00 1.09 1.16 1.09 0.93 0.76 0.58 0.46 0.41 0.45 0.51 0.52 0.59 0.72 0.73 0.69 0.71 0.73 0.71 0.72 0.74 0.73 0.76 0.75 0.69 0.65 0.64 0.61 0.55 0.51 0.44 0.41 0.41 0.41 0.42 0.42
0.94 0.75 0.68 0.73 0.79 0.82 0.89 0.95 0.99 1.06 1.05 0.97 0.84 0.61 0.44 0.41 0.48 0.53 0.55 0.64 0.72 0.69 0.63 0.64 0.60 0.59 0.61 0.64 0.66 0.69 0.67 0.64 0.61 0.56 0.54 0.49 0.44 0.40 0.36 0.35 0.34 0.34 0.35
0.91 0.76 0.58 0.58 0.68 0.75 0.83 0.89 0.92 0.92 0.93 0.89 0.74 0.50 0.33 0.33 0.43 0.52 0.60 0.64 0.63 0.61 0.55 0.51 0.47 0.49 0.50 0.51 0.52 0.55 0.57 0.57 0.53 0.48 0.48 0.43 0.38 0.37 0.35 0.35 0.32 0.31 0.32
0.90 0.82 0.66 0.57 0.60 0.65 0.73 0.82 0.82 0.78 0.76 0.73 0.63 0.44 0.30 0.29 0.39 0.49 0.53 0.52 0.49 0.48 0.45 0.41 0.39 0.40 0.39 0.40 0.40 0.42 0.47 0.48 0.46 0.44 0.42 0.39 0.37 0.36 0.36 0.37 0.35 0.33 0.34
0.87 0.78 0.67 0.60 0.61 0.59 0.63 0.72 0.70 0.65 0.61 0.56 0.49 0.39 0.30 0.31 0.37 0.45 0.46 0.44 0.42 0.39 0.37 0.34 0.31 0.31 0.34 0.34 0.32 0.33 0.36 0.36 0.37 0.37 0.36 0.35 0.35 0.35 0.36 0.36 0.33 0.31 0.31
0.79 0.75 0.63 0.58 0.60 0.63 0.62 0.63 0.57 0.52 0.47 0.40 0.34 0.31 0.29 0.34 0.38 0.39 0.39 0.37 0.34 0.31 0.27 0.25 0.26 0.29 0.31 0.31 0.28 0.28 0.29 0.29 0.29 0.31 0.31 0.30 0.30 0.32 0.33 0.35 0.32 0.29 0.30
0.77 0.77 0.66 0.56 0.54 0.56 0.54 0.52 0.48 0.45 0.38 0.30 0.28 0.29 0.31 0.32 0.32 0.34 0.32 0.28 0.25 0.25 0.23 0.24 0.28 0.29 0.26 0.25 0.24 0.22 0.23 0.24 0.26 0.28 0.31 0.31 0.28 0.27 0.28 0.30 0.31 0.30 0.30
0.70 0.71 0.64 0.54 0.48 0.46 0.43 0.45 0.46 0.39 0.31 0.23 0.22 0.23 0.23 0.21 0.20 0.22 0.21 0.18 0.18 0.18 0.19 0.21 0.23 0.24 0.24 0.21 0.19 0.19 0.19 0.20 0.22 0.24 0.25 0.27 0.28 0.26 0.25 0.27 0.27 0.28 0.28

GEFSGL_prec_meanprecacc_084.txt.gz
Total_Precipitation_Accumulation
0.58 0.66 0.55 0.38 0.31 0.32 0.36 0.35 0.38 0.46 0.56 0.63 0.60 0.54 0.51 0.57 0.70 0.85 0.92 1.00 1.09 1.13 1.20 1.22 1.21 1.24 1.29 1.25 1.33 1.46 1.62 1.75 1.62 1.53 1.45 1.40 1.32 1.22 1.09 0.89 0.76 0.67 0.60
1.03 1.11 0.96 0.58 0.37 0.30 0.25 0.24 0.30 0.43 0.53 0.59 0.56 0.51 0.49 0.56 0.69 0.84 0.99 1.19 1.33 1.29 1.21 1.13 1.06 1.12 1.21 1.22 1.32 1.35 1.41 1.61 1.61 1.60 1.59 1.61 1.50 1.32 1.22 1.08 0.89 0.76 0.73
0.93 1.04 0.84 0.46 0.27 0.20 0.18 0.23 0.37 0.49 0.53 0.54 0.55 0.61 0.71 0.80 0.91 1.03 1.10 1.24 1.29 1.20 1.15 1.09 1.01 1.01 1.05 1.14 1.24 1.30 1.30 1.37 1.50 1.54 1.58 1.65 1.63 1.43 1.24 1.13 1.03 1.04 0.96
0.53 0.68 0.55 0.32 0.22 0.17 0.18 0.24 0.30 0.34 0.39 0.49 0.62 0.80 0.91 0.98 1.01 1.07 1.07 1.04 1.04 0.96 0.90 0.85 0.89 1.00 1.05 1.04 1.02 1.07 1.12 1.22 1.31 1.38 1.48 1.60 1.65 1.58 1.35 1.23 1.22 1.17 1.10
0.43 0.54 0.43 0.27 0.19 0.13 0.11 0.14 0.19 0.27 0.33 0.47 0.63 0.74 0.73 0.76 0.83 0.90 0.92 0.89 0.85 0.79 0.71 0.57 0.58 0.75 0.88 0.91 0.85 0.89 0.93 1.01 1.07 1.17 1.29 1.44 1.54 1.61 1.42 1.24 1.21 1.28 1.25
0.37 0.49 0.43 0.33 0.21 0.13 0.12 0.14 0.21 0.28 0.33 0.42 0.51 0.52 0.49 0.38 0.36 0.39 0.48 0.56 0.62 0.62 0.55 0.51 0.50 0.52 0.55 0.57 0.61 0.66 0.72 0.80 0.92 1.08 1.21 1.30 1.33 1.41 1.49 1.46 1.41 1.37 1.39
0.37 0.46 0.47 0.42 0.32 0.25 0.17 0.18 0.25 0.30 0.35 0.41 0.41 0.43 0.45 0.45 0.28 0.20 0.21 0.32 0.41 0.45 0.45 0.49 0.40 0.36 0.39 0.39 0.40 0.38 0.41 0.47 0.60 0.81 1.03 1.13 1.25 1.26 1.45 1.51 1.52 1.62 1.66
0.31 0.44 0.50 0.49 0.45 0.43 0.33 0.32 0.36 0.40 0.43 0.47 0.44 0.45 0.50 0.47 0.31 0.21 0.17 0.20 0.31 0.37 0.41 0.43 0.43 0.45 0.45 0.45 0.43 0.42 0.38 0.36 0.38 0.45 0.67 0.92 1.12 1.33 1.38 1.47 1.53 1.61 1.66
0.26 0.41 0.50 0.52 0.51 0.50 0.48 0.48 0.52 0.56 0.52 0.49 0.49 0.52 0.56 0.56 0.39 0.23 0.18 0.26 0.39 0.42 0.45 0.45 0.45 0.47 0.45 0.34 0.38 0.41 0.42 0.43 0.35 0.35 0.45 0.68 0.88 0.99 1.19 1.38 1.50 1.42 1.39
0.28 0.39 0.54 0.64 0.70 0.69 0.67 0.63 0.63 0.72 0.66 0.60 0.55 0.59 0.63 0.71 0.59 0.32 0.23 0.35 0.53 0.58 0.62 0.59 0.47 0.41 0.36 0.26 0.32 0.42 0.42 0.42 0.45 0.41 0.36 0.44 0.59 0.74 0.80 0.92 1.11 1.20 1.11
0.31 0.37 0.51 0.71 0.82 0.82 0.85 0.81 0.78 0.80 0.82 0.82 0.74 0.75 0.79 0.82 0.73 0.41 0.29 0.42 0.60 0.72 0.74 0.72 0.64 0.44 0.32 0.27 0.28 0.37 0.40 0.43 0.54 0.58 0.56 0.56 0.67 0.79 0.76 0.74 0.82 0.93 0.95
0.39 0.47 0.58 0.71 0.65 0.66 0.90 0.96 0.99 1.05 1.04 0.99 0.95 0.87 0.87 0.90 0.80 0.53 0.32 0.41 0.60 0.81 0.89 0.86 0.78 0.54 0.39 0.33 0.32 0.32 0.29 0.31 0.43 0.55 0.59 0.57 0.61 0.71 0.78 0.74 0.75 0.78 0.83
0.50 0.56 0.63 0.71 0.82 0.94 1.03 1.06 1.09 1.15 1.16 1.09 1.04 0.98 0.95 0.99 0.96 0.59 0.40 0.47 0.58 0.77 0.98 0.99 0.82 0.63 0.53 0.42 0.39 0.40 0.36 0.35 0.45 0.50 0.51 0.52 0.53 0.62 0.78 0.87 0.89 0.86 0.84
0.58 0.59 0.64 0.75 0.85 0.97 1.14 1.20 1.21 1.18 1.17 1.14 1.07 1.02 1.03 1.10 1.14 0.88 0.64 0.63 0.71 0.80 0.94 1.00 0.88 0.74 0.65 0.57 0.51 0.49 0.47 0.47 0.53 0.54 0.55 0.59 0.61 0.67 0.74 0.80 0.86 0.86 0.82
0.68 0.66 0.67 0.75 0.90 0.99 1.10 1.21 1.20 1.24 1.08 1.02 0.95 0.92 0.96 1.05 1.07 0.87 0.78 0.81 0.93 0.99 0.98 1.04 1.06 0.95 0.84 0.74 0.70 0.71 0.70 0.65 0.59 0.63 0.67 0.68 0.67 0.67 0.71 0.73 0.75 0.77 0.72
0.83 0.75 0.71 0.76 0.89 1.00 1.10 1.12 0.95 0.89 0.71 0.64 0.64 0.61 0.66 0.72 0.82 0.71 0.62 0.72 0.89 0.96 0.94 0.99 1.08 1.07 0.99 0.90 0.84 0.85 0.83 0.78 0.72 0.72 0.72 0.71 0.69 0.66 0.68 0.70 0.70 0.69 0.67
0.97 0.87 0.79 0.78 0.86 0.94 1.05 1.20 1.23 1.01 0.76 0.60 0.53 0.46 0.47 0.54 0.63 0.63 0.60 0.66 0.77 0.82 0.85 0.91 0.99 1.03 1.00 0.97 0.91 0.89 0.86 0.85 0.83 0.79 0.75 0.74 0.72 0.67 0.64 0.65 0.64 0.65 0.66
1.03 0.92 0.84 0.84 0.88 0.91 0.97 1.11 1.27 1.29 1.07 0.76 0.60 0.50 0.43 0.44 0.48 0.54 0.57 0.63 0.73 0.78 0.79 0.85 0.89 0.92 0.92 0.93 0.92 0.92 0.89 0.89 0.84 0.81 0.75 0.73 0.71 0.65 0.64 0.63 0.58 0.55 0.58
0.99 0.91 0.83 0.86 0.88 0.87 0.93 1.01 1.12 1.20 1.13 0.98 0.82 0.64 0.49 0.42 0.46 0.52 0.53 0.60 0.75 0.78 0.76 0.79 0.80 0.80 0.84 0.86 0.86 0.88 0.87 0.82 0.77 0.76 0.73 0.67 0.65 0.61 0.60 0.59 0.58 0.56 0.55
0.96 0.76 0.69 0.74 0.80 0.82 0.90 0.98 1.03 1.10 1.09 1.03 0.90 0.68 0.48 0.44 0.53 0.60 0.60 0.69 0.77 0.75 0.70 0.72 0.68 0.67 0.71 0.76 0.79 0.82 0.79 0.77 0.75 0.69 0.66 0.62 0.57 0.54 0.52 0.52 0.51 0.49 0.47
0.92 0.77 0.58 0.58 0.68 0.75 0.84 0.92 0.96 0.96 0.98 0.96 0.81 0.56 0.36 0.34 0.47 0.61 0.69 0.73 0.72 0.71 0.64 0.58 0.54 0.56 0.60 0.62 0.64 0.65 0.67 0.69 0.66 0.62 0.63 0.59 0.52 0.51 0.50 0.50 0.47 0.44 0.45
0.90 0.82 0.66 0.58 0.61 0.66 0.74 0.84 0.86 0.82 0.81 0.79 0.70 0.49 0.33 0.31 0.43 0.55 0.60 0.59 0.57 0.57 0.52 0.48 0.46 0.48 0.49 0.49 0.51 0.54 0.57 0.59 0.58 0.56 0.55 0.54 0.52 0.51 0.51 0.53 0.50 0.46 0.47
0.87 0.79 0.67 0.61 0.62 0.60 0.64 0.74 0.75 0.70 0.67 0.62 0.55 0.46 0.36 0.36 0.42 0.50 0.51 0.50 0.49 0.45 0.42 0.39 0.37 0.37 0.42 0.42 0.41 0.43 0.47 0.48 0.47 0.46 0.47 0.48 0.48 0.49 0.51 0.51 0.48 0.44 0.41
0.80 0.76 0.64 0.59 0.60 0.64 0.64 0.66 0.62 0.58 0.53 0.48 0.43 0.40 0.37 0.39 0.42 0.43 0.44 0.42 0.40 0.36 0.31 0.31 0.31 0.34 0.37 0.38 0.37 0.36 0.37 0.37 0.38 0.40 0.42 0.43 0.42 0.45 0.46 0.47 0.44 0.39 0.39
0.77 0.78 0.68 0.58 0.56 0.58 0.58 0.59 0.56 0.53 0.46 0.38 0.36 0.36 0.37 0.37 0.37 0.40 0.39 0.35 0.30 0.29 0.27 0.28 0.33 0.33 0.30 0.29 0.29 0.27 0.28 0.28 0.29 0.34 0.39 0.43 0.40 0.39 0.40 0.41 0.41 0.38 0.37
0.70 0.72 0.66 0.56 0.51 0.51 0.51 0.56 0.57 0.50 0.41 0.32 0.31 0.31 0.28 0.25 0.25 0.26 0.25 0.24 0.24 0.23 0.23 0.25 0.27 0.27 0.27 0.25 0.22 0.22 0.21 0.21 0.23 0.27 0.30 0.36 0.39 0.38 0.37 0.38 0.36 0.35 0.34

GEFSGL_prec_meanprecacc_090.txt.gz
Total_Precipitation_Accumulation
0.58 0.66 0.55 0.38 0.31 0.32 0.36 0.35 0.38 0.46 0.56 0.63 0.60 0.54 0.51 0.57 0.70 0.85 0.92 1.00 1.09 1.13 1.20 1.22 1.22 1.25 1.30 1.25 1.34 1.46 1.63 1.76 1.63 1.53 1.45 1.41 1.33 1.24 1.10 0.90 0.79 0.69 0.62
1.03 1.11 0.96 0.58 0.37 0.30 0.25 0.24 0.30 0.43 0.53 0.59 0.56 0.51 0.49 0.56 0.69 0.84 0.99 1.20 1.33 1.29 1.22 1.14 1.06 1.12 1.21 1.23 1.32 1.35 1.41 1.62 1.62 1.60 1.59 1.61 1.51 1.33 1.23 1.10 0.91 0.78 0.74
0.93 1.04 0.84 0.46 0.27 0.20 0.18 0.23 0.37 0.49 0.53 0.54 0.55 0.61 0.71 0.80 0.91 1.04 1.10 1.24 1.29 1.20 1.16 1.09 1.01 1.01 1.05 1.14 1.26 1.31 1.30 1.37 1.51 1.55 1.59 1.66 1.63 1.44 1.25 1.14 1.05 1.06 0.97
0.53 0.68 0.55 0.32 0.22 0.17 0.18 0.24 0.30 0.34 0.39 0.49 0.62 0.80 0.91 0.98 1.01 1.07 1.07 1.05 1.05 0.96 0.90 0.85 0.89 1.00 1.05 1.04 1.03 1.07 1.13 1.22 1.32 1.39 1.48 1.61 1.65 1.59 1.36 1.24 1.23 1.18 1.11
0.43 0.54 0.43 0.27 0.19 0.13 0.11 0.14 0.19 0.27 0.33 0.47 0.63 0.74 0.73 0.76 0.83 0.90 0.92 0.89 0.85 0.79 0.71 0.58 0.58 0.75 0.89 0.92 0.86 0.90 0.94 1.02 1.08 1.17 1.29 1.44 1.55 1.62 1.44 1.26 1.22 1.29 1.26
0.37 0.49 0.43 0.33 0.21 0.13 0.12 0.14 0.21 0.28 0.34 0.42 0.51 0.52 0.49 0.38 0.36 0.40 0.48 0.56 0.62 0.63 0.56 0.51 0.50 0.52 0.55 0.57 0.62 0.66 0.73 0.81 0.93 1.08 1.21 1.30 1.33 1.42 1.50 1.48 1.43 1.38 1.39
0.37 0.46 0.47 0.42 0.32 0.25 0.17 0.18 0.25 0.30 0.35 0.41 0.41 0.43 0.45 0.45 0.29 0.20 0.21 0.33 0.41 0.45 0.45 0.49 0.40 0.36 0.40 0.40 0.40 0.39 0.42 0.48 0.60 0.82 1.03 1.13 1.25 1.26 1.46 1.53 1.54 1.64 1.67
0.31 0.44 0.50 0.49 0.45 0.43 0.33 0.32 0.36 0.40 0.43 0.47 0.44 0.45 0.50 0.47 0.31 0.21 0.18 0.20 0.31 0.37 0.41 0.43 0.44 0.45 0.46 0.46 0.44 0.43 0.38 0.36 0.38 0.46 0.67 0.92 1.12 1.33 1.39 1.48 1.56 1.64 1.68
0.26 0.41 0.51 0.52 0.51 0.50 0.48 0.48 0.52 0.56 0.52 0.50 0.50 0.52 0.56 0.57 0.39 0.23 0.18 0.26 0.39 0.42 0.45 0.45 0.45 0.47 0.45 0.35 0.38 0.41 0.42 0.44 0.36 0.36 0.46 0.68 0.88 0.99 1.20 1.39 1.52 1.45 1.40
0.28 0.40 0.54 0.64 0.70 0.69 0.67 0.63 0.63 0.72 0.66 0.60 0.56 0.59 0.65 0.72 0.59 0.32 0.23 0.35 0.53 0.58 0.62 0.59 0.48 0.41 0.36 0.26 0.32 0.43 0.42 0.43 0.46 0.42 0.37 0.45 0.60 0.74 0.81 0.93 1.13 1.22 1.13
0.31 0.38 0.51 0.71 0.82 0.82 0.85 0.82 0.79 0.81 0.83 0.83 0.75 0.76 0.80 0.83 0.73 0.41 0.30 0.42 0.60 0.72 0.75 0.72 0.65 0.44 0.32 0.27 0.28 0.37 0.40 0.43 0.54 0.58 0.57 0.57 0.68 0.80 0.77 0.75 0.83 0.95 0.97
0.41 0.48 0.60 0.72 0.67 0.67 0.92 0.97 1.00 1.06 1.05 1.00 0.95 0.88 0.87 0.90 0.80 0.53 0.32 0.41 0.60 0.81 0.89 0.87 0.78 0.54 0.39 0.33 0.32 0.32 0.29 0.31 0.43 0.55 0.59 0.57 0.62 0.71 0.79 0.76 0.77 0.80 0.85
0.51 0.57 0.64 0.72 0.82 0.95 1.04 1.06 1.10 1.16 1.17 1.09 1.04 0.99 0.96 0.99 0.96 0.59 0.40 0.47 0.58 0.77 0.98 0.99 0.82 0.63 0.53 0.43 0.39 0.40 0.36 0.35 0.45 0.51 0.51 0.52 0.53 0.63 0.81 0.91 0.93 0.90 0.88
0.58 0.60 0.64 0.76 0.85 0.97 1.15 1.21 1.22 1.18 1.18 1.16 1.08 1.04 1.04 1.10 1.14 0.89 0.64 0.63 0.71 0.80 0.94 1.00 0.88 0.74 0.65 0.57 0.51 0.49 0.47 0.47 0.53 0.54 0.55 0.59 0.61 0.68 0.76 0.84 0.91 0.91 0.87
0.69 0.68 0.69 0.76 0.91 1.00 1.11 1.21 1.21 1.25 1.10 1.05 0.98 0.94 0.97 1.05 1.07 0.87 0.78 0.81 0.93 0.99 0.98 1.04 1.06 0.95 0.84 0.75 0.71 0.72 0.71 0.66 0.60 0.63 0.67 0.69 0.68 0.68 0.73 0.77 0.81 0.82 0.77
0.88 0.80 0.76 0.80 0.92 1.02 1.11 1.12 0.96 0.90 0.73 0.66 0.66 0.63 0.67 0.73 0.83 0.71 0.62 0.72 0.89 0.96 0.94 0.99 1.08 1.07 0.99 0.91 0.85 0.86 0.85 0.79 0.73 0.74 0.73 0.72 0.70 0.67 0.70 0.74 0.75 0.74 0.72
1.05 0.94 0.85 0.82 0.89 0.96 1.06 1.21 1.25 1.02 0.77 0.61 0.54 0.47 0.49 0.55 0.64 0.64 0.60 0.66 0.77 0.82 0.85 0.91 0.99 1.04 1.00 0.97 0.92 0.90 0.87 0.87 0.85 0.80 0.76 0.75 0.73 0.68 0.66 0.68 0.68 0.71 0.71
1.09 0.97 0.87 0.87 0.90 0.93 0.99 1.13 1.29 1.30 1.08 0.77 0.61 0.51 0.44 0.45 0.50 0.55 0.57 0.64 0.74 0.78 0.79 0.85 0.90 0.93 0.93 0.93 0.93 0.93 0.91 0.91 0.86 0.82 0.76 0.74 0.72 0.67 0.66 0.66 0.61 0.60 0.63
1.01 0.93 0.84 0.87 0.90 0.88 0.94 1.03 1.13 1.21 1.14 0.99 0.83 0.65 0.51 0.44 0.47 0.53 0.53 0.61 0.75 0.78 0.76 0.80 0.81 0.81 0.84 0.87 0.87 0.90 0.89 0.84 0.80 0.79 0.75 0.68 0.66 0.62 0.62 0.62 0.61 0.60 0.61
0.96 0.77 0.70 0.75 0.80 0.83 0.91 0.99 1.03 1.11 1.10 1.04 0.93 0.70 0.51 0.46 0.55 0.61 0.61 0.69 0.78 0.76 0.71 0.73 0.69 0.68 0.72 0.77 0.80 0.83 0.80 0.79 0.77 0.72 0.69 0.64 0.58 0.56 0.55 0.55 0.55 0.53 0.51
0.93 0.77 0.59 0.59 0.69 0.76 0.85 0.93 0.97 0.97 1.00 0.98 0.84 0.58 0.40 0.37 0.49 0.63 0.71 0.75 0.74 0.72 0.66 0.61 0.56 0.58 0.61 0.63 0.66 0.67 0.69 0.72 0.68 0.64 0.65 0.61 0.55 0.53 0.53 0.54 0.52 0.50 0.50
0.91 0.83 0.67 0.59 0.62 0.67 0.75 0.85 0.87 0.84 0.84 0.82 0.72 0.53 0.37 0.34 0.46 0.58 0.62 0.61 0.58 0.59 0.54 0.50 0.48 0.50 0.50 0.52 0.54 0.57 0.60 0.62 0.60 0.58 0.57 0.57 0.55 0.54 0.55 0.57 0.56 0.54 0.53
0.88 0.79 0.68 0.61 0.63 0.61 0.65 0.76 0.77 0.74 0.71 0.66 0.59 0.52 0.42 0.43 0.47 0.54 0.55 0.52 0.51 0.47 0.43 0.41 0.39 0.39 0.44 0.45 0.45 0.46 0.50 0.50 0.50 0.48 0.50 0.51 0.52 0.52 0.56 0.58 0.56 0.52 0.49
0.80 0.76 0.64 0.59 0.61 0.66 0.66 0.69 0.65 0.61 0.58 0.54 0.49 0.46 0.44 0.46 0.48 0.48 0.48 0.45 0.43 0.38 0.33 0.32 0.33 0.35 0.38 0.41 0.39 0.38 0.39 0.40 0.40 0.43 0.46 0.48 0.46 0.49 0.54 0.55 0.53 0.49 0.48
0.77 0.78 0.68 0.58 0.57 0.60 0.61 0.62 0.59 0.57 0.52 0.44 0.43 0.43 0.43 0.43 0.43 0.45 0.42 0.38 0.33 0.31 0.28 0.29 0.34 0.34 0.31 0.31 0.31 0.29 0.30 0.30 0.32 0.37 0.44 0.49 0.45 0.44 0.47 0.48 0.48 0.46 0.46
0.70 0.73 0.66 0.57 0.52 0.52 0.53 0.59 0.60 0.54 0.48 0.40 0.38 0.39 0.36 0.32 0.31 0.32 0.30 0.27 0.26 0.24 0.24 0.26 0.28 0.28 0.28 0.26 0.24 0.23 0.22 0.23 0.25 0.30 0.33 0.40 0.45 0.43 0.44 0.46 0.43 0.43 0.42

GEFSGL_prec_meanprecacc_096.txt.gz
Total_Precipitation_Accumulation
0.58 0.66 0.55 0.38 0.31 0.32 0.36 0.35 0.38 0.46 0.56 0.63 0.60 0.54 0.51 0.57 0.70 0.85 0.92 1.00 1.09 1.13 1.20 1.22 1.22 1.25 1.30 1.25 1.34 1.46 1.63 1.76 1.63 1.53 1.45 1.41 1.33 1.24 1.10 0.91 0.79 0.70 0.62
1.03 1.11 0.96 0.58 0.37 0.30 0.25 0.24 0.30 0.43 0.53 0.59 0.56 0.51 0.49 0.56 0.69 0.84 0.99 1.20 1.33 1.29 1.22 1.14 1.06 1.12 1.21 1.23 1.32 1.35 1.41 1.62 1.62 1.60 1.59 1.61 1.51 1.33 1.23 1.10 0.91 0.79 0.75
0.93 1.05 0.84 0.46 0.27 0.20 0.18 0.23 0.37 0.49 0.53 0.54 0.55 0.61 0.71 0.80 0.91 1.04 1.10 1.24 1.29 1.20 1.16 1.09 1.01 1.01 1.05 1.14 1.26 1.31 1.30 1.37 1.51 1.55 1.59 1.66 1.63 1.44 1.25 1.14 1.05 1.06 0.98
0.53 0.68 0.55 0.32 0.22 0.17 0.18 0.24 0.30 0.34 0.39 0.49 0.62 0.80 0.91 0.98 1.01 1.07 1.07 1.05 1.05 0.96 0.90 0.85 0.89 1.00 1.05 1.04 1.03 1.07 1.13 1.23 1.32 1.39 1.48 1.61 1.65 1.59 1.36 1.24 1.23 1.18 1.11
0.43 0.54 0.43 0.28 0.20 0.14 0.11 0.14 0.19 0.27 0.33 0.47 0.63 0.74 0.73 0.76 0.83 0.90 0.92 0.89 0.85 0.79 0.71 0.58 0.58 0.75 0.89 0.92 0.86 0.90 0.94 1.02 1.08 1.18 1.29 1.44 1.55 1.62 1.44 1.26 1.22 1.29 1.26
0.37 0.49 0.44 0.34 0.22 0.14 0.12 0.14 0.21 0.28 0.34 0.42 0.51 0.52 0.49 0.38 0.36 0.40 0.48 0.56 0.62 0.63 0.56 0.51 0.50 0.52 0.55 0.57 0.62 0.66 0.73 0.81 0.93 1.09 1.21 1.30 1.33 1.42 1.50 1.48 1.43 1.38 1.39
0.39 0.48 0.49 0.44 0.33 0.25 0.17 0.18 0.25 0.30 0.35 0.41 0.41 0.43 0.45 0.45 0.29 0.20 0.21 0.33 0.41 0.45 0.45 0.49 0.40 0.36 0.40 0.40 0.40 0.39 0.42 0.48 0.60 0.82 1.04 1.14 1.25 1.26 1.46 1.53 1.54 1.64 1.67
0.32 0.44 0.51 0.49 0.45 0.43 0.34 0.33 0.37 0.40 0.43 0.47 0.44 0.45 0.50 0.47 0.31 0.22 0.18 0.20 0.31 0.37 0.41 0.43 0.44 0.45 0.46 0.46 0.44 0.43 0.38 0.36 0.38 0.46 0.67 0.92 1.12 1.33 1.39 1.48 1.56 1.64 1.68
0.26 0.41 0.51 0.52 0.51 0.50 0.48 0.48 0.52 0.56 0.52 0.50 0.50 0.53 0.57 0.58 0.41 0.24 0.19 0.26 0.39 0.42 0.45 0.45 0.45 0.47 0.45 0.35 0.38 0.41 0.42 0.44 0.36 0.36 0.46 0.68 0.88 0.99 1.20 1.39 1.52 1.45 1.41
0.29 0.40 0.54 0.65 0.70 0.69 0.67 0.63 0.64 0.73 0.67 0.61 0.57 0.61 0.65 0.73 0.60 0.32 0.23 0.35 0.53 0.58 0.62 0.59 0.48 0.41 0.36 0.26 0.32 0.43 0.42 0.43 0.46 0.42 0.38 0.45 0.60 0.74 0.81 0.93 1.13 1.23 1.14
0.32 0.39 0.52 0.72 0.84 0.84 0.87 0.84 0.81 0.83 0.85 0.84 0.75 0.76 0.80 0.83 0.73 0.41 0.30 0.43 0.60 0.72 0.75 0.72 0.65 0.44 0.32 0.27 0.28 0.37 0.40 0.43 0.54 0.58 0.57 0.57 0.68 0.80 0.77 0.75 0.83 0.95 0.97
0.43 0.50 0.62 0.75 0.69 0.70 0.94 0.99 1.01 1.07 1.05 1.00 0.95 0.88 0.87 0.90 0.81 0.53 0.32 0.42 0.60 0.81 0.89 0.87 0.78 0.54 0.39 0.33 0.32 0.32 0.29 0.31 0.43 0.55 0.59 0.57 0.62 0.72 0.79 0.76 0.78 0.80 0.85
0.54 0.60 0.66 0.73 0.84 0.97 1.06 1.08 1.11 1.17 1.18 1.09 1.05 1.00 0.96 0.99 0.96 0.59 0.40 0.47 0.59 0.77 0.99 0.99 0.82 0.63 0.53 0.43 0.39 0.40 0.36 0.35 0.46 0.51 0.51 0.52 0.53 0.63 0.81 0.91 0.93 0.91 0.89
0.61 0.63 0.67 0.78 0.88 1.01 1.18 1.24 1.24 1.20 1.20 1.17 1.10 1.04 1.04 1.10 1.15 0.89 0.64 0.63 0.71 0.80 0.94 1.00 0.88 0.74 0.65 0.57 0.51 0.49 0.47 0.47 0.53 0.55 0.55 0.59 0.62 0.68 0.76 0.85 0.91 0.92 0.87
0.72 0.71 0.73 0.81 0.97 1.06 1.17 1.26 1.26 1.29 1.14 1.07 0.99 0.95 0.97 1.06 1.07 0.88 0.78 0.82 0.94 0.99 0.98 1.04 1.06 0.95 0.84 0.75 0.71 0.72 0.71 0.66 0.60 0.64 0.67 0.69 0.68 0.68 0.73 0.78 0.81 0.83 0.78
0.94 0.86 0.84 0.88 1.01 1.10 1.18 1.17 1.00 0.93 0.75 0.67 0.66 0.63 0.67 0.73 0.83 0.71 0.62 0.73 0.89 0.97 0.94 0.99 1.09 1.07 0.99 0.91 0.85 0.86 0.85 0.80 0.74 0.74 0.73 0.73 0.71 0.68 0.70 0.74 0.76 0.76 0.74
1.10 1.00 0.91 0.88 0.94 1.00 1.09 1.23 1.26 1.03 0.77 0.61 0.54 0.47 0.49 0.56 0.64 0.64 0.61 0.67 0.77 0.82 0.85 0.91 0.99 1.04 1.01 0.98 0.92 0.90 0.87 0.87 0.85 0.80 0.76 0.76 0.74 0.69 0.67 0.69 0.69 0.72 0.73
1.11 0.99 0.90 0.89 0.92 0.95 1.00 1.14 1.29 1.30 1.08 0.77 0.62 0.52 0.44 0.46 0.50 0.55 0.58 0.64 0.74 0.78 0.79 0.85 0.90 0.94 0.94 0.94 0.93 0.94 0.91 0.91 0.86 0.82 0.77 0.74 0.73 0.67 0.67 0.68 0.64 0.62 0.66
1.04 0.96 0.87 0.89 0.92 0.90 0.95 1.03 1.14 1.21 1.14 1.00 0.83 0.65 0.51 0.44 0.48 0.53 0.54 0.61 0.76 0.78 0.77 0.80 0.81 0.82 0.85 0.87 0.87 0.90 0.89 0.84 0.80 0.79 0.75 0.69 0.67 0.63 0.63 0.63 0.62 0.62 0.64
0.99 0.79 0.71 0.76 0.82 0.84 0.92 1.00 1.04 1.11 1.11 1.05 0.93 0.70 0.52 0.47 0.55 0.62 0.61 0.70 0.79 0.77 0.72 0.74 0.70 0.69 0.73 0.77 0.80 0.83 0.81 0.79 0.78 0.73 0.70 0.65 0.59 0.57 0.56 0.56 0.56 0.54 0.53
0.93 0.78 0.59 0.59 0.69 0.76 0.86 0.94 0.97 0.98 1.01 0.99 0.84 0.59 0.40 0.37 0.50 0.64 0.73 0.76 0.76 0.74 0.68 0.62 0.57 0.58 0.61 0.64 0.66 0.67 0.69 0.73 0.69 0.65 0.67 0.63 0.56 0.55 0.53 0.55 0.53 0.51 0.51
0.91 0.83 0.67 0.59 0.62 0.67 0.75 0.86 0.87 0.85 0.85 0.83 0.73 0.53 0.38 0.36 0.48 0.60 0.66 0.64 0.62 0.62 0.57 0.51 0.49 0.50 0.51 0.52 0.55 0.58 0.61 0.63 0.62 0.60 0.59 0.58 0.58 0.57 0.56 0.59 0.58 0.55 0.55
0.88 0.79 0.68 0.61 0.63 0.62 0.66 0.76 0.77 0.74 0.71 0.67 0.60 0.53 0.44 0.45 0.50 0.58 0.59 0.56 0.54 0.50 0.45 0.43 0.40 0.40 0.44 0.46 0.46 0.48 0.51 0.51 0.51 0.50 0.51 0.53 0.54 0.55 0.59 0.60 0.58 0.53 0.51
0.80 0.76 0.64 0.59 0.61 0.66 0.67 0.69 0.65 0.62 0.59 0.55 0.50 0.48 0.47 0.50 0.52 0.52 0.52 0.48 0.45 0.40 0.35 0.34 0.35 0.36 0.39 0.42 0.40 0.40 0.40 0.41 0.42 0.45 0.48 0.50 0.49 0.52 0.56 0.58 0.56 0.52 0.53
0.77 0.78 0.68 0.58 0.57 0.60 0.61 0.62 0.60 0.58 0.53 0.46 0.45 0.45 0.46 0.47 0.47 0.49 0.47 0.42 0.37 0.35 0.31 0.32 0.36 0.36 0.32 0.32 0.32 0.30 0.31 0.31 0.33 0.39 0.46 0.50 0.47 0.47 0.52 0.53 0.54 0.52 0.52
0.70 0.73 0.66 0.57 0.52 0.52 0.54 0.60 0.61 0.55 0.49 0.42 0.41 0.42 0.40 0.36 0.35 0.36 0.34 0.31 0.30 0.29 0.28 0.30 0.30 0.30 0.29 0.27 0.25 0.25 0.24 0.24 0.26 0.31 0.35 0.43 0.47 0.46 0.48 0.51 0.49 0.49 0.49